Temp
59 59 55 61 63 61 58 56 57 58 59 57 60 60 66 65 61 60 58 55 54 50 50 52 51 52 54 54 56 53 53 53 55 54 53 53 54 54 53 53 54 56 56 57
56 54 63 58 57 57 55 55 56 57 56 56 58 56 64 63 61 62 60 55 53 50 51 50 51 52 52 52 53 54 53 53 56 58 56 56 53 53 53 52 52 53 52 53
57 57 57 56 52 52 53 53 55 54 53 54 53 55 58 59 52 51 54 55 52 52 51 50 49 50 51 50 50 51 53 54 55 55 55 53 54 53 51 51 50 50 52 51
56 56 53 52 53 55 51 56 54 51 50 47 52 48 55 57 52 48 48 50 50 50 50 49 49 50 49 49 50 51 51 52 53 55 56 55 53 48 48 49 48 48 49 48
55 49 49 51 54 55 53 52 52 50 49 46 48 46 54 50 51 49 48 49 50 50 50 48 48 47 47 48 48 49 50 50 51 53 53 52 49 48 49 49 47 47 47 46
54 54 54 55 50 54 50 49 48 47 46 39 47 48 51 55 55 51 49 48 48 48 48 48 47 47 46 47 47 48 49 48 50 51 52 51 48 48 47 47 46 46 46 45
48 50 52 52 48 49 51 49 41 37 36 37 42 42 53 58 52 52 49 48 47 47 47 47 45 46 46 46 46 47 48 46 49 49 49 49 49 49 47 47 46 44 43 43
43 42 48 52 53 49 48 51 44 32 34 41 36 38 50 47 46 46 48 49 47 46 47 47 47 47 46 45 46 47 47 45 47 47 46 47 47 48 46 45 45 44 43 42
43 43 48 48 51 55 46 42 50 38 28 36 45 46 52 43 44 44 44 45 45 46 46 46 47 47 46 46 46 46 46 45 46 45 46 45 45 45 43 43 44 43 42 41
52 44 45 46 51 49 49 52 40 42 31 31 41 42 50 43 46 43 41 43 45 46 46 47 48 48 47 47 46 47 47 45 45 44 45 44 44 43 43 43 42 41 40 41
51 47 41 45 45 46 43 44 43 46 42 36 37 44 53 54 51 47 47 46 46 46 47 47 48 48 47 47 46 46 45 44 43 43 43 42 42 42 43 42 41 41 40 40
50 45 38 42 45 45 51 49 47 42 34 38 36 43 46 49 52 51 51 47 48 49 48 49 48 47 46 45 45 45 45 43 44 43 42 42 42 42 42 41 41 40 39 38
48 41 35 37 41 41 41 43 48 50 40 36 35 42 44 45 46 48 50 48 47 47 47 48 48 47 47 47 44 44 44 44 43 42 42 41 41 41 41 40 39 38 37 37
53 44 43 39 45 47 39 41 43 45 39 41 40 45 43 46 46 48 47 48 48 46 46 47 47 48 48 47 46 45 45 44 42 41 41 40 41 41 40 39 37 36 35 34
50 39 45 48 47 45 44 43 41 42 46 41 47 44 47 48 47 52 52 48 46 45 45 46 46 46 47 45 45 46 45 43 42 40 40 40 40 40 38 36 34 33 32 33
45 39 43 37 42 42 39 43 42 43 46 46 47 45 54 53 52 48 47 45 44 45 45 46 46 45 44 45 45 44 43 43 42 41 39 41 38 35 32 32 30 30 29 28
39 38 33 32 36 33 30 37 40 42 46 46 39 46 44 44 44 47 47 46 46 47 46 45 45 44 45 46 44 42 43 42 37 35 34 33 33 31 31 30 28 27 27 27
39 36 34 32 29 24 38 39 47 44 45 44 40 37 41 46 47 47 47 47 46 45 45 45 45 45 44 44 42 42 40 37 34 33 32 31 31 30 28 26 26 26 25 24
36 35 28 25 27 35 29 34 38 37 39 41 43 41 40 38 42 43 43 45 46 45 45 45 46 45 42 41 40 36 34 34 34 33 32 31 30 27 26 23 24 24 23 22
32 35 32 26 27 26 36 36 39 44 35 34 39 36 34 38 37 46 42 42 42 43 44 42 41 40 41 40 38 33 33 32 32 33 33 31 28 25 23 23 21 22 20 20
27 27 29 27 27 30 35 34 38 30 34 34 38 36 34 37 44 44 41 41 43 42 40 39 39 40 40 37 32 33 32 30 33 30 28 26 25 22 22 21 20 18 17 17
29 27 27 28 26 25 34 34 34 37 33 35 35 36 36 39 39 39 41 40 38 38 37 37 36 37 38 33 31 31 30 33 28 26 24 22 19 20 18 16 16 14 14 12
27 32 29 31 31 32 37 36 38 37 35 34 38 37 38 37 37 38 37 37 37 37 37 36 35 33 34 30 29 30 32 26 22 21 19 17 16 17 15 13 13 14 13 14
30 32 31 31 31 32 35 34 36 37 38 38 39 38 38 38 39 38 38 37 35 32 30 30 29 28 29 28 26 29 25 22 19 19 17 15 13 14 13 15 15 15 15 15
32 31 26 27 30 32 35 34 37 37 38 37 36 39 39 39 37 38 34 32 32 31 29 28 28 29 30 30 27 25 22 19 19 18 16 17 16 13 15 15 17 16 17 17
31 29 29 29 35 36 37 39 38 36 36 36 35 32 32 34 34 32 31 32 31 30 28 26 27 27 29 26 25 20 18 18 18 17 17 18 18 16 16 16 15 17 18 19
MSLP
1018.62 1018.23 1017.28 1016.94 1017.08 1017.22 1017.18 1017.11 1016.84 1017.31 1017.88 1017.92 1017.23 1016.84 1016.73 1017.87 1018.75 1019.40 1020.51 1021.75 1022.84 1024.07 1025.02 1025.24 1025.22 1025.17 1024.98 1024.94 1024.50 1024.70 1024.87 1025.04 1025.11 1025.09 1024.98 1024.94 1025.05 1025.75 1026.41 1026.86 1026.73 1026.45 1026.19 1026.04
1018.87 1017.71 1017.02 1017.64 1017.94 1017.88 1017.88 1017.60 1017.20 1017.71 1018.16 1018.14 1017.39 1016.88 1016.58 1017.36 1018.08 1018.99 1020.17 1021.73 1022.91 1023.94 1024.61 1025.26 1025.48 1025.52 1025.54 1025.44 1025.46 1025.59 1025.67 1025.52 1025.31 1025.23 1025.46 1025.70 1025.91 1026.61 1026.94 1027.48 1027.60 1027.41 1027.36 1027.29
1017.46 1017.54 1017.52 1017.93 1018.39 1018.42 1018.17 1017.89 1017.68 1018.03 1018.39 1018.24 1017.83 1016.29 1015.90 1016.88 1018.51 1019.78 1020.58 1021.52 1022.59 1023.26 1024.06 1024.76 1025.13 1025.26 1025.31 1025.06 1024.86 1024.76 1025.12 1025.38 1025.73 1026.19 1026.57 1026.99 1027.09 1027.02 1027.56 1027.84 1028.07 1028.35 1028.28 1028.21
1017.92 1017.85 1018.04 1018.27 1018.19 1018.36 1018.16 1018.10 1018.42 1018.64 1018.82 1018.05 1017.97 1015.70 1015.57 1016.27 1017.76 1019.30 1020.47 1021.50 1022.43 1023.33 1024.11 1024.93 1025.44 1025.67 1025.89 1026.10 1025.89 1025.83 1025.69 1025.35 1025.84 1025.90 1026.00 1026.06 1027.28 1028.17 1028.64 1028.80 1028.98 1029.20 1029.24 1029.20
1017.26 1017.80 1018.16 1018.13 1017.90 1018.52 1018.46 1018.68 1018.90 1019.04 1018.90 1018.79 1018.10 1017.57 1015.03 1016.25 1016.99 1018.47 1019.98 1021.08 1022.16 1023.34 1024.14 1024.92 1025.70 1025.94 1026.25 1026.21 1026.36 1026.43 1026.29 1026.38 1026.34 1026.10 1026.26 1026.73 1027.11 1028.60 1029.20 1029.42 1029.39 1029.56 1029.88 1030.01
1017.76 1018.18 1018.09 1018.00 1018.56 1018.78 1019.35 1019.45 1019.70 1019.86 1019.68 1018.43 1017.22 1017.15 1014.83 1015.20 1015.90 1017.69 1019.70 1021.29 1022.29 1023.16 1023.95 1024.89 1025.61 1026.03 1026.32 1026.44 1026.26 1026.43 1026.36 1026.69 1026.81 1026.76 1026.97 1027.70 1028.02 1028.43 1029.13 1029.76 1029.72 1030.00 1030.38 1030.55
1017.94 1017.75 1017.87 1018.22 1018.80 1019.44 1019.06 1019.12 1019.24 1019.51 1019.56 1017.72 1017.59 1017.39 1014.88 1015.39 1016.57 1017.70 1019.10 1020.96 1022.50 1023.53 1024.15 1024.83 1025.57 1026.09 1026.49 1026.73 1026.81 1027.02 1027.12 1027.47 1027.58 1027.52 1027.50 1028.25 1028.30 1029.02 1029.23 1029.76 1030.06 1030.43 1030.66 1030.96
1016.91 1017.27 1017.17 1017.36 1017.15 1017.56 1018.20 1017.94 1017.65 1017.81 1018.25 1017.52 1018.15 1016.56 1015.35 1016.58 1017.52 1018.55 1019.35 1020.65 1022.20 1023.29 1023.97 1024.54 1025.17 1025.86 1026.50 1026.92 1027.00 1027.21 1027.36 1027.75 1028.15 1028.08 1028.12 1028.60 1028.80 1029.39 1029.63 1030.17 1030.53 1030.68 1030.90 1031.16
1015.93 1016.31 1016.67 1017.00 1017.18 1017.27 1018.28 1018.03 1017.55 1018.05 1019.02 1018.02 1016.11 1015.76 1015.80 1016.81 1017.67 1018.57 1019.51 1020.71 1021.67 1022.55 1023.38 1024.13 1024.93 1025.57 1026.12 1026.62 1026.92 1027.16 1027.25 1028.04 1028.38 1028.52 1028.75 1028.96 1029.34 1029.74 1029.98 1030.52 1030.82 1030.92 1031.19 1031.49
1014.84 1015.80 1016.78 1017.26 1017.33 1017.49 1017.13 1016.83 1017.79 1017.70 1017.34 1016.46 1015.08 1014.92 1014.45 1015.88 1016.54 1018.08 1019.29 1020.18 1021.26 1022.21 1022.92 1023.42 1023.94 1024.65 1025.56 1026.22 1026.83 1027.21 1027.46 1028.00 1028.36 1028.73 1028.95 1029.18 1029.75 1030.06 1030.28 1030.39 1030.82 1031.08 1031.52 1031.73
1014.81 1015.57 1017.08 1017.31 1016.60 1015.89 1017.01 1016.54 1016.48 1016.26 1015.91 1015.27 1014.45 1013.32 1013.51 1014.13 1015.36 1016.78 1018.02 1019.29 1020.34 1021.18 1021.89 1022.72 1023.60 1024.35 1025.18 1025.80 1026.48 1026.90 1027.44 1027.94 1028.36 1028.58 1028.88 1029.16 1029.72 1030.20 1030.28 1030.47 1030.90 1031.13 1031.45 1031.66
1014.08 1014.82 1015.66 1015.80 1015.90 1016.17 1015.30 1014.82 1014.79 1014.47 1015.15 1015.12 1014.87 1013.06 1013.81 1014.40 1015.04 1016.13 1017.23 1018.61 1019.68 1020.43 1021.14 1022.09 1023.12 1023.78 1024.46 1025.38 1025.91 1026.43 1027.00 1027.35 1028.01 1028.33 1028.78 1029.01 1029.31 1029.84 1030.19 1030.60 1030.83 1031.06 1031.24 1031.80
1013.20 1014.23 1015.14 1015.23 1016.11 1016.19 1015.35 1014.73 1013.90 1013.67 1014.17 1013.21 1014.22 1012.96 1014.27 1014.88 1015.37 1015.89 1016.71 1017.84 1019.07 1020.02 1020.76 1021.37 1022.37 1023.10 1023.64 1024.34 1025.21 1025.95 1026.44 1027.11 1027.60 1028.24 1028.55 1028.96 1029.39 1029.46 1029.98 1030.60 1030.92 1031.28 1031.47 1031.93
1011.32 1012.16 1011.86 1011.23 1011.74 1012.51 1013.80 1013.54 1013.52 1013.23 1012.59 1011.88 1010.83 1012.66 1013.99 1014.44 1015.14 1015.78 1016.42 1017.23 1018.37 1019.24 1019.96 1020.65 1021.47 1022.00 1023.03 1023.71 1024.49 1025.34 1025.75 1026.34 1027.31 1027.76 1028.17 1028.50 1028.99 1029.18 1029.56 1030.27 1030.99 1031.43 1031.78 1032.06
1011.58 1011.37 1011.55 1010.98 1011.41 1011.84 1011.63 1011.66 1012.41 1011.85 1010.48 1010.94 1010.25 1011.19 1012.35 1013.34 1014.00 1014.48 1015.25 1016.52 1017.75 1018.35 1019.21 1019.82 1020.42 1021.44 1022.29 1023.17 1023.93 1024.54 1025.10 1025.97 1026.81 1027.30 1027.70 1027.95 1028.65 1029.12 1029.52 1030.17 1030.90 1031.60 1032.06 1032.04
1011.76 1011.00 1011.75 1011.56 1011.84 1012.05 1011.88 1011.21 1010.75 1010.61 1010.47 1010.23 1010.76 1010.23 1011.53 1012.42 1013.63 1014.59 1015.19 1016.26 1017.10 1017.58 1018.26 1019.03 1019.85 1021.12 1021.59 1022.27 1022.92 1023.66 1024.55 1025.36 1026.21 1026.58 1027.13 1027.61 1028.32 1029.09 1029.69 1030.57 1031.36 1031.51 1031.72 1032.19
1011.96 1011.96 1012.30 1011.18 1012.17 1012.78 1012.18 1009.18 1010.10 1009.94 1009.77 1009.99 1010.35 1009.89 1011.77 1013.04 1013.74 1014.20 1014.72 1015.64 1016.36 1017.02 1017.75 1018.45 1019.36 1020.12 1020.77 1021.46 1022.25 1023.07 1023.85 1024.72 1025.44 1026.16 1026.95 1027.64 1028.29 1028.89 1029.62 1030.39 1031.08 1031.76 1031.75 1031.92
1010.80 1011.64 1011.99 1011.79 1012.84 1011.71 1008.64 1009.56 1008.99 1009.28 1009.66 1010.12 1010.56 1011.16 1012.03 1012.72 1013.54 1014.21 1014.81 1015.56 1016.39 1017.11 1017.72 1018.37 1019.15 1019.81 1020.68 1021.41 1022.20 1022.91 1023.58 1024.32 1025.17 1025.73 1026.58 1027.27 1027.92 1028.53 1029.34 1030.32 1030.71 1031.28 1031.56 1031.66
1010.84 1011.38 1011.93 1012.30 1011.74 1010.45 1010.82 1010.42 1009.98 1009.92 1009.43 1010.42 1011.00 1012.07 1013.01 1013.78 1014.28 1014.70 1015.28 1015.81 1016.32 1016.93 1017.62 1018.36 1019.00 1019.94 1020.67 1021.28 1021.93 1022.66 1023.65 1024.20 1024.75 1025.27 1025.82 1026.59 1027.29 1028.14 1028.94 1029.80 1030.42 1030.97 1031.24 1031.38
1011.74 1011.50 1011.45 1011.83 1011.18 1010.32 1009.50 1010.07 1010.13 1010.12 1010.34 1010.42 1011.21 1012.58 1013.74 1014.43 1014.62 1014.30 1015.22 1015.85 1016.66 1017.34 1018.19 1018.74 1019.39 1019.98 1020.43 1021.10 1021.65 1022.40 1023.19 1023.84 1024.34 1024.71 1025.12 1025.98 1026.71 1027.55 1028.42 1029.28 1030.05 1030.56 1030.89 1031.03
1011.95 1011.88 1010.98 1011.21 1010.83 1010.52 1010.16 1010.52 1010.77 1011.15 1011.01 1011.04 1011.89 1013.04 1014.01 1014.25 1013.87 1014.27 1015.09 1016.16 1016.78 1017.42 1018.19 1018.87 1019.46 1019.80 1020.27 1020.99 1021.62 1022.36 1023.01 1023.40 1023.45 1024.30 1024.97 1025.76 1026.58 1027.24 1028.04 1028.97 1029.77 1030.38 1030.63 1030.82
1010.63 1011.03 1010.98 1011.28 1011.12 1010.72 1010.43 1011.50 1011.21 1011.20 1011.54 1011.85 1012.53 1013.04 1013.64 1013.92 1014.31 1014.83 1015.39 1016.14 1016.98 1017.68 1018.35 1018.91 1019.52 1019.89 1020.37 1020.95 1021.61 1022.29 1022.80 1022.49 1023.51 1024.23 1024.91 1025.66 1026.40 1027.16 1028.04 1028.80 1029.54 1030.04 1030.35 1030.53
1011.17 1010.14 1010.36 1010.84 1010.65 1010.64 1010.93 1011.13 1011.21 1011.44 1011.77 1012.44 1012.52 1012.81 1013.43 1014.13 1014.68 1015.13 1015.80 1016.47 1017.16 1017.74 1018.28 1018.75 1019.21 1019.70 1020.32 1020.92 1021.52 1022.16 1022.05 1022.79 1023.59 1024.40 1024.90 1025.79 1026.61 1027.25 1027.93 1028.59 1029.05 1029.37 1029.66 1029.60
1010.58 1010.41 1010.42 1010.88 1011.04 1011.09 1011.37 1011.88 1012.01 1012.15 1012.03 1012.25 1012.49 1012.91 1013.66 1014.02 1014.54 1015.17 1015.81 1016.54 1017.21 1017.68 1018.20 1018.70 1019.34 1019.88 1020.32 1020.68 1021.22 1021.50 1022.16 1022.64 1023.49 1024.03 1024.87 1025.81 1026.47 1027.04 1027.68 1028.05 1028.24 1028.36 1028.34 1028.36
1010.00 1010.13 1010.42 1011.18 1011.37 1011.58 1011.88 1012.17 1012.25 1012.46 1012.61 1012.80 1013.06 1013.28 1013.50 1014.09 1014.67 1015.13 1015.85 1016.48 1016.98 1017.46 1018.03 1018.56 1018.82 1019.37 1019.74 1020.18 1020.72 1021.33 1021.89 1022.48 1023.22 1023.89 1024.64 1025.30 1025.86 1026.54 1026.89 1027.26 1027.31 1027.49 1027.46 1027.51
1009.50 1009.70 1009.72 1009.84 1010.09 1010.47 1010.79 1010.97 1011.67 1012.36 1012.61 1012.88 1013.22 1013.80 1014.09 1014.35 1014.81 1015.38 1015.94 1016.23 1016.71 1017.33 1017.73 1018.39 1018.76 1019.24 1019.35 1019.93 1020.45 1021.05 1021.60 1022.18 1022.71 1023.59 1024.24 1024.64 1025.19 1025.85 1026.25 1026.51 1026.80 1027.01 1026.99 1027.00
Wind_Speed
2 7 13 17 15 5 1 4 11 2 2 4 10 12 10 12 10 10 8 7 7 5 4 4 4 4 4 7 8 8 8 7 5 5 7 8 10 9 9 9 12 12 11 11
5 14 13 2 8 8 5 9 14 6 3 4 9 14 16 10 11 11 9 9 9 8 5 5 6 7 8 9 10 9 9 8 6 5 7 6 8 9 9 9 12 13 14 13
12 2 5 8 7 10 11 14 12 9 1 5 5 16 18 6 4 5 8 10 11 11 10 7 6 6 6 8 8 10 10 10 10 10 9 9 9 8 9 9 9 12 14 14
8 3 6 8 8 12 14 12 10 8 4 9 3 7 6 7 8 9 11 12 12 12 9 7 7 7 7 7 7 7 7 10 8 7 7 10 9 9 8 8 9 10 13 13
5 9 10 11 10 11 5 5 9 6 9 5 9 7 6 4 10 12 13 14 14 12 11 9 7 6 5 6 7 8 10 9 9 11 12 10 14 9 8 8 11 12 11 12
4 1 5 4 3 7 12 7 5 3 1 9 15 13 7 7 7 7 13 13 14 14 12 10 8 7 6 6 8 8 11 11 10 10 12 12 13 12 9 8 8 7 7 8
4 10 4 4 6 2 6 10 4 5 6 7 2 10 9 7 2 2 14 15 15 13 12 12 11 9 8 8 8 8 10 10 10 11 12 11 12 11 11 8 7 7 6 6
10 8 16 12 14 10 16 12 5 8 7 1 2 8 5 2 4 4 5 15 15 15 13 13 13 11 10 9 9 10 10 11 10 11 12 10 11 7 7 7 6 6 6 6
9 6 2 4 3 10 8 11 1 4 2 3 7 5 7 4 6 5 9 15 17 17 16 14 13 11 11 11 11 11 11 10 10 10 9 9 9 9 9 9 7 6 6 5
6 5 2 3 3 1 5 11 5 4 5 7 6 6 8 8 13 9 12 15 16 16 16 15 15 15 13 12 11 11 11 11 11 10 9 8 9 8 9 8 8 7 6 5
6 5 4 5 12 18 7 8 4 3 5 4 4 5 4 12 13 15 13 15 17 19 18 16 14 13 13 12 12 11 11 12 11 11 10 10 9 9 8 7 7 7 6 5
11 3 6 12 1 3 10 11 12 8 7 5 2 6 2 2 6 9 10 13 15 17 17 16 15 14 14 14 13 13 13 13 12 11 11 11 10 9 8 7 7 6 6 4
13 6 6 4 4 3 9 9 15 11 2 11 7 3 1 1 4 7 9 12 14 16 17 16 15 15 15 15 14 14 13 13 12 12 12 11 10 9 8 7 6 5 5 4
17 10 17 19 8 11 13 15 16 18 11 12 20 8 8 10 11 11 11 12 15 16 17 15 15 16 14 14 14 15 14 13 13 13 12 12 11 10 9 7 6 5 4 4
13 16 18 22 11 9 10 20 22 25 27 17 16 20 16 16 16 15 15 12 15 17 16 17 15 14 14 14 14 14 13 14 14 13 13 13 11 9 9 8 7 5 5 5
5 14 16 16 13 12 9 18 25 26 24 23 15 18 8 13 8 9 12 14 16 15 15 15 13 13 15 14 14 13 13 15 14 14 14 12 10 9 8 8 7 6 6 5
13 11 8 16 9 5 11 23 21 17 17 19 20 16 7 8 12 13 14 16 15 14 14 13 13 12 11 12 11 14 14 12 12 11 8 8 9 9 9 9 8 7 7 5
17 19 8 6 6 13 7 0 18 21 17 16 3 4 10 7 6 5 7 11 10 9 9 10 9 9 8 8 9 8 7 9 10 10 8 9 9 9 10 9 9 7 6 6
1 13 6 7 11 4 2 4 9 15 15 10 18 6 5 6 4 4 6 7 9 11 8 8 8 8 8 9 8 7 8 8 9 10 11 10 11 10 10 9 9 7 6 6
3 4 9 5 7 12 2 5 4 5 6 9 12 8 10 10 7 8 12 8 7 7 7 8 8 6 7 8 9 8 8 8 10 10 10 9 10 10 10 9 8 6 5 6
5 2 13 6 6 5 4 5 2 7 3 4 8 8 13 8 3 5 11 9 7 7 8 6 8 8 8 8 7 7 7 10 9 6 7 8 9 9 9 8 6 6 6 5
9 10 5 4 5 10 6 6 9 3 3 5 6 9 11 5 8 8 10 8 8 7 7 7 7 7 7 7 7 7 9 7 6 7 8 9 9 8 7 7 6 5 5 6
4 3 5 6 2 2 9 3 2 2 6 6 7 7 10 10 10 11 8 8 8 9 8 6 8 8 6 7 8 8 8 7 7 8 8 8 8 7 7 7 7 6 7 6
4 3 3 3 3 2 9 2 1 3 4 6 3 7 11 12 10 11 8 7 7 6 7 6 6 6 8 8 9 11 6 8 8 8 8 8 9 9 7 6 6 7 7 7
2 8 6 2 1 3 3 7 5 5 2 4 3 7 12 8 10 8 7 7 7 7 5 6 9 10 13 8 10 8 7 9 9 8 8 9 8 9 8 8 7 7 8 8
7 7 5 4 9 5 6 11 12 8 10 8 7 4 4 7 8 7 8 8 6 7 5 6 8 8 11 7 7 6 8 10 10 9 8 8 7 7 6 6 6 13 14 13
Wind_Direction
118 207 214 215 219 262 206 236 259 200 116 240 246 265 254 200 218 214 201 179 152 106 68 56 60 57 72 58 72 65 70 53 78 60 79 73 80 79 68 57 52 55 54 57
162 231 233 140 193 217 227 251 259 272 217 238 264 260 264 220 228 232 212 182 160 142 128 84 59 57 58 64 60 57 57 61 70 86 92 86 98 83 83 73 60 56 57 51
211 145 168 171 169 201 226 233 242 263 187 217 269 262 250 217 178 169 177 168 165 160 145 137 115 101 103 101 110 112 105 97 92 93 96 98 97 91 79 67 65 57 57 57
237 151 154 183 210 204 240 221 232 231 243 263 239 282 236 208 200 196 184 182 168 161 147 140 132 105 83 77 91 92 94 102 98 107 107 110 102 95 88 85 82 70 61 61
193 177 188 212 223 186 268 144 203 212 234 266 213 257 245 172 230 205 191 181 171 165 156 147 138 121 107 109 97 94 97 95 100 108 112 113 113 112 108 100 93 83 72 63
279 31 196 204 94 193 136 101 82 84 205 251 231 222 193 212 220 174 181 183 174 167 160 155 154 153 140 129 114 111 110 103 105 109 107 111 116 124 122 115 102 89 78 71
192 218 172 165 115 95 185 166 180 214 208 252 61 216 261 243 172 105 178 178 178 174 170 169 173 169 154 139 121 114 114 105 106 108 109 116 115 118 119 117 109 113 101 84
197 231 190 185 215 180 190 198 207 213 203 210 106 231 242 329 109 121 146 173 174 179 181 183 180 171 161 151 141 135 127 121 128 121 119 119 119 120 112 117 120 110 102 95
194 248 197 196 146 167 176 213 137 111 81 261 205 226 233 181 193 167 160 175 183 185 188 188 180 179 170 169 162 157 144 143 143 132 128 129 128 130 124 123 115 110 110 107
197 234 219 139 146 130 212 144 171 214 217 229 202 241 225 205 207 181 184 191 189 190 193 192 186 184 181 177 172 166 159 163 153 148 146 142 138 137 138 138 126 119 116 116
152 239 135 148 208 186 171 189 205 222 225 240 259 223 215 204 185 189 195 194 192 193 195 193 192 188 185 181 179 174 176 171 170 167 159 151 155 159 146 138 141 131 125 111
195 157 194 207 110 306 237 215 184 199 187 241 315 242 176 123 167 187 182 189 197 198 194 193 194 187 186 189 185 186 186 182 183 172 169 169 164 162 158 152 138 131 121 114
170 198 227 219 208 180 219 202 217 237 56 206 210 209 119 200 243 202 190 189 195 196 196 194 195 197 195 192 191 194 193 192 185 181 179 175 178 175 167 156 144 139 145 158
167 173 208 224 216 160 203 205 202 202 221 214 227 217 196 205 214 202 200 198 195 196 197 197 199 201 201 198 195 199 198 195 189 188 188 187 188 184 174 164 160 166 180 195
189 226 217 236 242 203 208 194 194 208 220 213 230 224 194 194 201 204 207 185 190 198 195 199 201 202 198 199 202 204 202 197 192 192 194 199 193 184 175 172 173 173 197 213
221 228 216 242 228 215 228 211 202 211 219 234 243 245 184 202 188 192 189 185 200 200 200 201 199 197 200 203 206 204 204 201 194 197 203 200 188 176 177 178 182 185 197 210
183 200 180 231 192 159 248 210 198 205 213 212 218 230 135 177 195 202 192 193 202 196 195 190 197 198 200 205 202 205 205 193 188 192 192 178 177 178 183 182 183 201 210 213
192 204 202 225 133 218 265 65 206 209 212 217 251 151 168 183 184 175 176 191 197 195 190 193 188 186 189 187 192 200 191 180 182 192 191 188 184 185 180 186 194 203 209 218
126 183 176 182 209 331 345 203 165 178 228 198 216 166 133 103 107 193 190 197 194 190 186 186 177 173 169 174 171 157 167 178 184 199 202 193 187 186 184 192 196 203 213 221
130 186 206 151 207 219 195 173 170 143 243 196 188 152 150 146 196 218 178 179 178 169 176 171 163 157 164 163 156 159 175 181 204 204 203 189 183 182 183 188 192 198 214 229
146 165 211 183 221 271 202 161 191 161 228 121 172 146 153 189 217 134 153 165 176 182 179 154 165 180 184 158 151 181 170 204 210 163 163 173 182 177 177 175 184 192 213 240
169 167 184 156 209 248 141 93 176 161 15 137 157 169 179 152 147 150 159 165 176 184 175 181 179 199 183 164 168 190 203 200 160 168 172 173 165 168 169 172 179 197 215 235
207 192 175 207 197 42 181 52 158 124 151 196 175 174 167 160 175 167 172 174 183 191 194 184 191 192 183 179 192 200 220 161 161 166 170 162 159 168 167 179 193 206 213 234
238 166 156 167 160 170 186 38 322 204 204 168 192 160 166 182 176 177 166 176 187 193 200 184 178 203 215 202 200 222 164 158 163 172 167 164 173 180 186 198 205 212 216 225
139 143 132 75 356 13 262 225 221 216 210 153 144 178 193 172 178 174 177 193 204 205 193 179 194 212 228 201 207 200 176 161 176 174 176 182 190 193 197 214 215 223 229 229
187 151 166 186 179 163 201 213 198 201 211 201 177 181 197 185 191 183 198 202 199 212 196 196 211 214 231 198 209 184 172 174 171 185 187 190 189 192 207 217 232 237 242 240